Weather History for KCGC - June, 2013

Change the Weather History Date:

Thursday, June 13, 2013

  Actual Average (KGNV) Record (KGNV)
Temperature  
Mean Temperature 78 °F 80 °F  
Max Temperature 87 °F 90 °F 103 °F (1952)
Min Temperature 69 °F 69 °F 54 °F (1913)
Degree Days  
Heating Degree Days 0 0  
Month to date heating degree days 0  
Since 1 June heating degree days 0  
Since 1 July heating degree days 1218  
Cooling Degree Days 13 15  
Month to date cooling degree days 179  
Year to date cooling degree days 689  
Since 1 June cooling degree days 179  
Growing Degree Days 28 (Base 50)    
Moisture  
Dew Point 71 °F    
Average Humidity 77    
Maximum Humidity 100    
Minimum Humidity 55    
Precipitation  
Precipitation 0.00 in 0.24 in 2.46 in (2006)
Month to date precipitation 2.62  
Year to date precipitation 18.61  
Snow  
Snow 0.00 in 0.00 in 0.00 in ()
Month to date snowfall 0.0  
Since 1 June snowfall 0.0  
Since 1 July snowfall 0.0  
Snow Depth -    
Sea Level Pressure  
Sea Level Pressure 29.99 in    
Wind  
Wind Speed 3 mph (West)    
Max Wind Speed 13 mph    
Max Gust Speed 18 mph    
Visibility 10 miles    
Events      
T = Trace of Precipitation, MM = Missing Value Source: NWS Daily Summary

Daily Weather History Graph

Daily Weather History Graph

Search for Another Location

Airport or City:

Trip Planner

Search our weather history database for the weather conditions in past years. The results will help you decide how hot, cold, wet, or windy it might be!

Date:

Astronomy

Jun. 13, 2013 Rise Set
Actual Time 6:31 AM EDT 8:29 PM EDT
Civil Twilight 6:04 AM EDT 8:56 PM EDT
Nautical Twilight 5:31 AM EDT 9:29 PM EDT
Astronomical Twilight 4:56 AM EDT 10:04 PM EDT
Moon 10:49 AM EDT (6/13) 11:55 PM EDT (6/13)
Length of Visible Light 14h 52m
Length of Day
13h 58m
Waxing Crescent, 21% of the Moon is Illuminated
Jun 13
Waxing Crescent
Jun 16
First Quarter
Jun 23
Full
Jun 30
Last Quarter
Jul 8
New

Hourly Weather History & Observations

Time (EDT) Temp. Heat Index Dew Point Humidity Pressure Visibility Wind Dir Wind Speed Gust Speed Precip Events Conditions
12:15 AM 73.4 °F - 71.6 °F 94% 30.04 in 10.0 mi Calm Calm - N/A   Clear
12:35 AM 73.4 °F - 71.6 °F 94% 30.04 in 10.0 mi Calm Calm - N/A   Clear
12:55 AM 73.4 °F - 71.6 °F 94% 30.04 in 10.0 mi Calm Calm - N/A   Clear
1:15 AM 73.4 °F - 71.6 °F 94% 30.04 in 10.0 mi Calm Calm - N/A   Clear
1:35 AM 73.4 °F - 71.6 °F 94% 30.03 in 10.0 mi South 3.5 mph - N/A   Clear
1:55 AM 73.4 °F - 71.6 °F 94% 30.02 in 10.0 mi Calm Calm - N/A   Clear
2:15 AM 73.4 °F - 71.6 °F 94% 30.01 in 10.0 mi Calm Calm - N/A   Clear
2:35 AM 71.6 °F - 71.6 °F 100% 30.01 in 10.0 mi Calm Calm - N/A   Clear
2:55 AM 71.6 °F - 71.6 °F 100% 30.01 in 10.0 mi Calm Calm - N/A   Scattered Clouds
3:15 AM 71.6 °F - 71.6 °F 100% 30.00 in 10.0 mi Calm Calm - N/A   Clear
3:35 AM 71.6 °F - 69.8 °F 94% 30.00 in 7.0 mi Calm Calm - N/A   Clear
3:55 AM 71.6 °F - 69.8 °F 94% 30.00 in 7.0 mi Calm Calm - N/A   Clear
4:15 AM 71.6 °F - 69.8 °F 94% 30.00 in 7.0 mi Calm Calm - N/A   Clear
4:35 AM 71.6 °F - 69.8 °F 94% 30.00 in 10.0 mi Calm Calm - N/A   Clear
4:55 AM 69.8 °F - 69.8 °F 100% 29.99 in 10.0 mi Calm Calm - N/A   Clear
5:15 AM 69.8 °F - 69.8 °F 100% 29.99 in 10.0 mi Calm Calm - N/A   Clear
5:35 AM 69.8 °F - 68.0 °F 94% 29.99 in 10.0 mi Calm Calm - N/A   Clear
5:55 AM 69.8 °F - 68.0 °F 94% 29.99 in 10.0 mi Calm Calm - N/A   Clear
6:15 AM 69.8 °F - 68.0 °F 94% 30.00 in 10.0 mi Calm Calm - N/A   Clear
6:35 AM 69.8 °F - 68.0 °F 94% 30.01 in 10.0 mi Calm Calm - N/A   Clear
6:55 AM 69.8 °F - 69.8 °F 100% 30.02 in 10.0 mi Calm Calm - N/A   Clear
7:15 AM 71.6 °F - 69.8 °F 94% 30.02 in 10.0 mi Calm Calm - N/A   Clear
7:35 AM 73.4 °F - 71.6 °F 94% 30.03 in 10.0 mi Calm Calm - N/A   Scattered Clouds
7:55 AM 75.2 °F - 71.6 °F 89% 30.04 in 10.0 mi Calm Calm - N/A   Scattered Clouds
8:15 AM 78.8 °F - 73.4 °F 83% 30.04 in 10.0 mi Calm Calm - N/A   Scattered Clouds
8:35 AM 80.6 °F 85.4 °F 73.4 °F 79% 30.04 in 10.0 mi West 6.9 mph - N/A   Scattered Clouds
8:55 AM 82.4 °F 88.2 °F 73.4 °F 74% 30.04 in 10.0 mi WNW 3.5 mph - N/A   Scattered Clouds
9:15 AM 82.4 °F 88.2 °F 73.4 °F 74% 30.04 in 10.0 mi WNW 5.8 mph - N/A   Scattered Clouds
9:35 AM 84.2 °F 90.9 °F 73.4 °F 70% 30.04 in 10.0 mi West 5.8 mph - N/A   Scattered Clouds
9:55 AM 84.2 °F 90.9 °F 73.4 °F 70% 30.04 in 10.0 mi WSW 6.9 mph - N/A   Mostly Cloudy
10:15 AM 84.2 °F 90.9 °F 73.4 °F 70% 30.04 in 10.0 mi WNW 6.9 mph - N/A   Mostly Cloudy
10:35 AM 86.0 °F 91.8 °F 71.6 °F 62% 30.04 in 10.0 mi WSW 8.1 mph - N/A   Mostly Cloudy
10:55 AM 86.0 °F 91.8 °F 71.6 °F 62% 30.04 in 10.0 mi WNW 6.9 mph - N/A   Scattered Clouds
11:15 AM 86.0 °F 91.8 °F 71.6 °F 62% 30.04 in 10.0 mi WNW 5.8 mph - N/A   Scattered Clouds
11:35 AM 86.0 °F 91.8 °F 71.6 °F 62% 30.04 in 10.0 mi West 8.1 mph - N/A   Scattered Clouds
11:55 AM 87.8 °F 93.8 °F 71.6 °F 58% 30.04 in 10.0 mi West 6.9 mph - N/A   Scattered Clouds
12:15 PM 87.8 °F 93.8 °F 71.6 °F 58% 30.04 in 10.0 mi West 6.9 mph 10.4 mph N/A   Scattered Clouds
12:35 PM 87.8 °F 92.6 °F 69.8 °F 55% 30.03 in 10.0 mi West 6.9 mph - N/A   Scattered Clouds
12:55 PM 87.8 °F 93.8 °F 71.6 °F 58% 30.03 in 10.0 mi West 11.5 mph - N/A   Scattered Clouds
1:15 PM 87.8 °F 92.6 °F 69.8 °F 55% 30.02 in 10.0 mi West 8.1 mph - N/A   Scattered Clouds
1:35 PM 87.8 °F 92.6 °F 69.8 °F 55% 30.01 in 10.0 mi WSW 8.1 mph - N/A   Mostly Cloudy
1:55 PM 87.8 °F 92.6 °F 69.8 °F 55% 30.01 in 10.0 mi SW 9.2 mph 17.3 mph N/A   Scattered Clouds
2:15 PM 87.8 °F 93.8 °F 71.6 °F 58% 30.00 in 10.0 mi West 10.4 mph 16.1 mph N/A   Scattered Clouds
2:35 PM 87.8 °F 93.8 °F 71.6 °F 58% 29.99 in 10.0 mi SW 6.9 mph - N/A   Scattered Clouds
2:55 PM 87.8 °F 93.8 °F 71.6 °F 58% 29.98 in 10.0 mi West 9.2 mph - N/A   Mostly Cloudy
3:15 PM 87.8 °F 93.8 °F 71.6 °F 58% 29.98 in 10.0 mi WSW 11.5 mph 17.3 mph N/A   Mostly Cloudy
3:35 PM 87.8 °F 93.8 °F 71.6 °F 58% 29.97 in 10.0 mi West 9.2 mph 18.4 mph N/A   Scattered Clouds
3:55 PM 87.8 °F 93.8 °F 71.6 °F 58% 29.96 in 10.0 mi WSW 12.7 mph 18.4 mph N/A   Scattered Clouds
4:15 PM 87.8 °F 95.6 °F 73.4 °F 62% 29.96 in 10.0 mi West 10.4 mph 18.4 mph N/A   Scattered Clouds
4:35 PM 87.8 °F 93.8 °F 71.6 °F 58% 29.95 in 10.0 mi West 9.2 mph 17.3 mph N/A   Scattered Clouds
4:55 PM 86.0 °F 91.8 °F 71.6 °F 62% 29.95 in 10.0 mi WSW 12.7 mph 16.1 mph N/A   Scattered Clouds
5:15 PM 86.0 °F 91.8 °F 71.6 °F 62% 29.95 in 10.0 mi West 12.7 mph 17.3 mph N/A   Scattered Clouds
5:35 PM 87.8 °F 93.8 °F 71.6 °F 58% 29.95 in 10.0 mi West 12.7 mph 17.3 mph N/A   Scattered Clouds
5:55 PM 86.0 °F 91.8 °F 71.6 °F 62% 29.95 in 10.0 mi WSW 10.4 mph - N/A   Clear
6:15 PM 86.0 °F 91.8 °F 71.6 °F 62% 29.94 in 10.0 mi WSW 9.2 mph - N/A   Scattered Clouds
6:35 PM 84.2 °F 89.6 °F 71.6 °F 66% 29.93 in 10.0 mi West 10.4 mph - N/A   Clear
6:55 PM 84.2 °F 89.6 °F 71.6 °F 66% 29.93 in 10.0 mi WSW 10.4 mph 16.1 mph N/A   Clear
7:15 PM 82.4 °F 87.2 °F 71.6 °F 70% 29.93 in 10.0 mi West 6.9 mph - N/A   Clear
7:35 PM 82.4 °F 87.2 °F 71.6 °F 70% 29.93 in 10.0 mi West 8.1 mph - N/A   Clear
7:55 PM 80.6 °F 84.6 °F 71.6 °F 74% 29.92 in 10.0 mi West 5.8 mph - N/A   Clear
8:15 PM 80.6 °F 84.6 °F 71.6 °F 74% 29.92 in 10.0 mi West 5.8 mph - N/A   Clear
8:35 PM 80.6 °F 84.6 °F 71.6 °F 74% 29.92 in 10.0 mi West 8.1 mph - N/A   Clear
8:55 PM 80.6 °F 84.6 °F 71.6 °F 74% 29.92 in 10.0 mi West 6.9 mph - N/A   Clear
9:15 PM 80.6 °F 84.6 °F 71.6 °F 74% 29.92 in 10.0 mi West 9.2 mph - N/A   Scattered Clouds
9:35 PM 80.6 °F 84.6 °F 71.6 °F 74% 29.92 in 10.0 mi West 5.8 mph - N/A   Clear
9:55 PM 78.8 °F - 73.4 °F 83% 29.93 in 10.0 mi West 4.6 mph - N/A   Clear
10:15 PM 78.8 °F - 73.4 °F 83% 29.94 in 10.0 mi West 4.6 mph - N/A   Scattered Clouds
10:35 PM 78.8 °F - 71.6 °F 78% 29.93 in 10.0 mi Calm Calm - N/A   Scattered Clouds
10:55 PM 77.0 °F - 71.6 °F 83% 29.93 in 10.0 mi Calm Calm - N/A   Clear
11:15 PM 77.0 °F - 71.6 °F 83% 29.94 in 10.0 mi WSW 3.5 mph - N/A   Clear
11:35 PM 77.0 °F - 71.6 °F 83% 29.94 in 10.0 mi Calm Calm - N/A   Clear
11:55 PM 78.8 °F - 71.6 °F 78% 29.95 in 10.0 mi SW 3.5 mph - N/A   Scattered Clouds